When you browse on this site, cookies collect data to enhance your experience and personalize the content and advertising you see.
Visit our Privacy Policy to learn more. By continuing to use the site, you agree to this use of cookies and data.
  • In Hungary
  • List of Countries
  • For 7 days
  • Water Temperature
  • Weather Map
  • News
  • Weather Widgets
  • user-avatar
    Login

    Hourly Weather Serednii Uhryniv

    Today, 21 August, Wednesday

    Time Temperature Precipitation Wind Pressure Humidity
    00:00 +24°C° 0 mm 2 mps 732 mmHg 80%
    01:00 +24°C° 0 mm 2 mps 731 mmHg 80%
    02:00 +23°C° 0 mm 2 mps 731 mmHg 84%
    03:00 +21°C° 0 mm 2 mps 731 mmHg 87%
    04:00 +21°C° 0 mm 2 mps 731 mmHg 82%
    05:00 +21°C° 0 mm 2 mps 731 mmHg 77%
    06:00 +23°C° 0 mm 2 mps 731 mmHg 73%
    07:00 +23°C° 0 mm 2 mps 731 mmHg 71%
    08:00 +24°C° 0 mm 2 mps 731 mmHg 75%
    09:00 +27°C° 0 mm 1 mps 732 mmHg 74%
    10:00 +29°C° 0 mm 1 mps 732 mmHg 67%
    11:00 +30°C° 0 mm 1 mps 732 mmHg 68%
    12:00 +31°C° 0 mm 2 mps 732 mmHg 64%
    13:00 +31°C° 0 mm 2 mps 732 mmHg 61%
    14:00 +29°C° 0.5 mm 6 mps 732 mmHg 58%
    15:00 +29°C° 0.1 mm 3 mps 732 mmHg 61%
    16:00 +26°C° 0 mm 5 mps 732 mmHg 77%
    17:00 +25°C° 0.1 mm 5 mps 733 mmHg 82%
    18:00 +25°C° 0 mm 2 mps 732 mmHg 77%
    19:00 +22°C° 0 mm 5 mps 733 mmHg 92%
    20:00 +21°C° 0 mm 5 mps 733 mmHg 96%
    21:00 +20°C° 0 mm 5 mps 733 mmHg 97%
    22:00 +19°C° 0 mm 5 mps 734 mmHg 98%
    23:00 +18°C° 0 mm 4 mps 734 mmHg 98%

    Tomorrow, 22 August, Thursday

    Time Temperature Precipitation Wind Pressure Humidity
    00:00 +16°C° 0 mm 5 mps 735 mmHg 97%
    01:00 +15°C° 0 mm 4 mps 735 mmHg 98%
    02:00 +15°C° 0 mm 4 mps 735 mmHg 98%
    03:00 +15°C° 0 mm 4 mps 735 mmHg 98%
    04:00 +14°C° 0 mm 4 mps 735 mmHg 96%
    05:00 +14°C° 0 mm 4 mps 735 mmHg 97%
    06:00 +14°C° 0 mm 4 mps 735 mmHg 97%
    07:00 +14°C° 0 mm 3 mps 736 mmHg 96%
    08:00 +14°C° 0 mm 3 mps 736 mmHg 95%
    09:00 +15°C° 0 mm 2 mps 736 mmHg 93%
    10:00 +15°C° 0 mm 2 mps 736 mmHg 93%
    11:00 +16°C° 0 mm 2 mps 736 mmHg 93%
    12:00 +16°C° 0 mm 2 mps 736 mmHg 92%
    13:00 +18°C° 0 mm 2 mps 736 mmHg 87%
    14:00 +18°C° 0 mm 2 mps 736 mmHg 85%
    15:00 +19°C° 0 mm 2 mps 736 mmHg 80%
    16:00 +20°C° 0 mm 2 mps 736 mmHg 80%
    17:00 +20°C° 0 mm 2 mps 736 mmHg 79%
    18:00 +19°C° 0.1 mm 2 mps 735 mmHg 90%
    19:00 +20°C° 0 mm 1 mps 736 mmHg 92%
    20:00 +18°C° 0 mm 0 mps 736 mmHg 94%
    21:00 +20°C° 0 mm 1 mps 736 mmHg 95%
    22:00 +18°C° 0 mm 2 mps 736 mmHg 96%
    23:00 +18°C° 0 mm 2 mps 736 mmHg 98%

    Day after tomorrow, 23 August, Friday

    Time Temperature Precipitation Wind Pressure Humidity
    00:00 +17°C° 0 mm 2 mps 736 mmHg 99%
    01:00 +18°C° 0 mm 1 mps 736 mmHg 100%
    02:00 +16°C° 0 mm 1 mps 736 mmHg 100%
    03:00 +16°C° 0 mm 1 mps 736 mmHg 100%
    04:00 +16°C° 0 mm 1 mps 736 mmHg 100%
    05:00 +15°C° 0 mm 1 mps 736 mmHg 100%
    06:00 +15°C° 0 mm 1 mps 736 mmHg 100%
    07:00 +15°C° 0 mm 1 mps 736 mmHg 100%
    08:00 +16°C° 0 mm 1 mps 737 mmHg 100%
    09:00 +16°C° 0 mm 1 mps 737 mmHg 100%
    10:00 +18°C° 0 mm 1 mps 737 mmHg 98%
    11:00 +18°C° 0 mm 1 mps 737 mmHg 96%
    12:00 +18°C° 0 mm 2 mps 738 mmHg 94%
    13:00 +19°C° 0 mm 2 mps 737 mmHg 88%
    14:00 +20°C° 0 mm 3 mps 737 mmHg 85%
    15:00 +20°C° 0 mm 3 mps 737 mmHg 80%
    16:00 +20°C° 0 mm 3 mps 737 mmHg 80%
    17:00 +20°C° 0 mm 3 mps 737 mmHg 78%
    18:00 +20°C° 0 mm 3 mps 737 mmHg 81%
    19:00 +19°C° 0 mm 2 mps 737 mmHg 83%
    20:00 +19°C° 0 mm 1 mps 737 mmHg 91%
    21:00 +18°C° 0 mm 1 mps 737 mmHg 94%
    22:00 +18°C° 0 mm 1 mps 737 mmHg 96%
    23:00 +16°C° 0 mm 2 mps 737 mmHg 95%

    24 August, Saturday

    Time Temperature Precipitation Wind Pressure Humidity
    00:00 +16°C° 0 mm 1 mps 737 mmHg 97%
    01:00 +15°C° 0 mm 1 mps 736 mmHg 99%
    02:00 +15°C° 0 mm 1 mps 736 mmHg 100%
    03:00 +15°C° 0 mm 1 mps 736 mmHg 98%
    04:00 +15°C° 0 mm 1 mps 736 mmHg 99%
    05:00 +15°C° 0 mm 1 mps 736 mmHg 99%
    06:00 +14°C° 0 mm 1 mps 735 mmHg 100%
    07:00 +15°C° 0 mm 2 mps 736 mmHg 100%
    08:00 +16°C° 0 mm 2 mps 736 mmHg 99%
    09:00 +17°C° 0 mm 3 mps 736 mmHg 98%
    10:00 +18°C° 0 mm 3 mps 736 mmHg 98%
    11:00 +18°C° 0 mm 3 mps 736 mmHg 99%
    12:00 +19°C° 0 mm 4 mps 736 mmHg 96%
    13:00 +20°C° 0 mm 4 mps 736 mmHg 94%
    14:00 +21°C° 0 mm 4 mps 736 mmHg 89%

    25 August, Sunday

    Time Temperature Precipitation Wind Pressure Humidity

    26 August, Monday

    Time Temperature Precipitation Wind Pressure Humidity
    Show more